[[{"header":{"parameterUnit":"m.s-1","parameterCategory":1,"la1":30.2991,"la2":30.254,"lo1":-89.0895,"lo2":-89.0444,"dy":0.0017,"dx":0.0017,"nx":28,"ny":28,"refTime":"2025-01-02T09:00:00:Z","depth":0,"parameterNumber":2,"parameterNumberName":"U-component_of_WINDS"},"data":[0,0,0,0,0,0,0,0,0,0,0,0,0,0,0,0,0,0,0,0,0,0,0,0,0,0,0,0,0,0,0,0,0,0,0,0,0,0,0,0,0,0,0,0,0,0,0,0,0,0,0,0,0,0,0,0,0,0,-2.865,-2.865,0,-2.8632,-2.8632,-2.8631,-2.8498,-2.8495,-2.8492,-2.8488,-2.8475,-2.8477,-2.848,0,0,0,0,0,0,0,0,0,0,0,0,0,-2.8575,-2.8577,-2.865,-2.865,-2.8649,-2.8632,-2.8632,-2.8631,-2.8499,-2.8495,-2.8491,-2.8487,-2.8474,-2.8477,-2.848,0,0,0,0,0,0,0,0,0,0,0,0,0,-2.8587,-2.8578,-2.865,-2.8581,-2.8575,-2.8632,-2.8632,-2.8631,-2.85,-2.8495,-2.849,-2.8485,-2.8473,-2.8477,-2.848,-2.8604,0,0,-2.8493,-2.8495,0,0,0,0,0,0,0,0,-2.8587,-2.859,-2.8591,-2.8586,-2.8579,-2.8562,-2.86,-2.8622,-2.8501,-2.8528,-2.8488,-2.8483,-2.8508,-2.8509,-2.8516,-2.8603,-2.8603,-2.8493,-2.8496,-2.8497,-2.8498,0,0,0,0,0,0,0,-2.8586,-2.859,-2.8643,-2.8592,-2.8584,-2.8553,-2.8549,-2.8603,-2.8546,-2.8525,-2.8516,-2.8515,-2.8504,-2.8513,-2.8515,-2.8602,-2.8493,-2.8497,-2.8499,-2.8501,-2.8792,-2.8797,0,0,0,0,0,0,-2.8594,-2.8591,-2.8643,-2.8642,-2.8571,-2.8558,-2.8554,-2.8572,-2.8545,-2.8536,-2.8519,-2.8509,-2.8508,-2.851,-2.8514,-2.8658,-2.8497,-2.8501,-2.8503,-2.8787,-2.8793,-2.8799,0,0,0,0,0,0,-2.8593,-2.86,-2.8644,-2.8614,-2.8617,-2.8565,-2.8587,-2.8575,-2.8583,-2.854,-2.853,-2.8539,-2.8504,-2.8508,-2.8583,-2.8656,-2.8503,-2.8507,-2.8781,-2.8789,-2.8796,-2.8947,0,0,0,0,0,0,-2.8592,-2.8601,-2.8645,-2.8616,-2.8619,-2.8712,-2.8591,-2.8578,-2.859,-2.8577,-2.8556,-2.8548,-2.8501,-2.8577,-2.8587,-2.8658,-2.851,-2.8774,-2.8784,-2.8794,-2.8935,-2.8959,-2.8979,0,0,0,0,0,-2.8589,-2.8689,-2.8648,-2.8656,-2.8674,-2.8716,-2.8718,-2.8661,-2.8597,-2.8642,-2.8615,-2.8549,-2.8646,-2.8586,-2.8596,-2.867,-2.8769,-2.8781,-2.8793,-2.8925,-2.8954,-2.8979,0,0,0,0,0,0,-2.873,-2.8684,-2.8638,-2.8731,-2.8728,-2.8694,-2.8749,-2.8693,-2.871,-2.8697,-2.8626,-2.8623,-2.8708,-2.8696,-2.863,-2.8789,-2.8696,-2.8711,-2.8793,-2.8821,-2.8842,-2.8844,-2.8513,0,0,0,0,0,-2.8771,-2.8808,-2.8766,-2.8852,-2.8853,-2.8802,-2.8818,-2.8774,-2.877,-2.8768,-2.8746,-2.8745,-2.8776,-2.8797,-2.8823,-2.8932,-2.8927,-2.8988,-2.901,-2.9029,-2.9042,-2.9102,-2.9129,-2.8839,-2.8838,-2.8838,0,0,-2.8858,-2.8837,-2.8865,-2.888,-2.8873,-2.8914,-2.8802,-2.885,-2.8881,-2.8776,-2.8844,-2.8829,-2.8824,-2.8917,-2.8957,-2.8909,-2.9122,-2.9044,-2.9059,-2.9063,-2.9117,-2.9144,-2.9169,-2.8847,-2.8845,-2.8844,0,0,-2.9036,-2.9024,-2.9095,-2.909,-2.9081,-2.9046,-2.9064,-2.9038,-2.9023,-2.9091,-2.9014,-2.905,-2.9104,-2.9104,-2.9111,-2.9293,-2.9233,-2.9303,-2.9419,-2.9478,-2.95,-2.952,-2.9587,-2.9611,-2.9317,-2.9317,-2.9317,0,-2.9145,-2.9203,-2.9139,-2.9192,-2.9202,-2.9109,-2.9181,-2.9181,-2.9181,-2.9191,-2.9138,-2.9204,-2.9194,-2.9287,-2.9331,-2.934,-2.9359,-2.9305,-2.9502,-2.9521,-2.9539,-2.9602,-2.9627,-2.9326,-2.9325,-2.9324,-2.9323,0,-2.9339,-2.938,-2.9439,-2.9441,-2.9457,-2.9521,-2.9468,-2.9493,-2.9448,-2.9421,-2.9493,-2.9477,-2.9499,-2.9517,-2.9475,-2.9605,-2.9577,-2.9514,-2.942,-2.9577,-2.9634,-2.9658,-2.9338,-2.9335,-2.9332,-2.933,0,0,-2.9604,-2.957,-2.9593,-2.9594,-2.9578,-2.9609,-2.967,-2.969,-2.9714,-2.9718,-2.9768,-2.9817,-2.9759,-2.9767,-2.9724,-2.9775,-2.9923,-2.9706,-2.9705,-2.9748,-3.0068,-3.0116,-3.0145,-2.9883,-2.9887,-2.9891,-3.0069,0,-2.9777,-2.9875,-2.9821,-2.9928,-2.9967,-2.988,-2.9933,-2.993,-2.9906,-2.9937,-2.9911,-2.9948,-2.9868,-2.9873,-2.992,-2.9895,-2.9986,-2.9881,-2.9931,-2.9934,-2.9936,-3.0175,-3.0225,-3.0394,-3.0091,-3.0095,-3.0098,0,-2.9991,-3.0004,-3.0115,-3.0093,-3.0108,-3.0156,-3.0171,-3.0201,-3.0198,-3.0177,-3.0188,-3.0133,-3.0192,-3.0099,-3.0182,-3.0112,-3.0129,-3.0121,-3.0126,-3.0129,-3.0026,-3.0186,-3.0447,-3.0473,-3.0132,-3.013,-3.0127,0,-3.0175,-3.022,-3.0293,-3.0296,-3.0272,-3.0309,-3.0301,-3.0292,-3.0308,-3.0323,-3.0333,-3.0355,-3.0367,-3.0386,-3.034,-3.0276,-3.043,-3.0332,-3.0416,-3.0418,-3.0453,-3.0451,-3.0722,-3.0463,-3.0463,-3.0462,-3.0462,0,-3.0374,-3.0446,-3.0376,-3.0421,-3.05,-3.0437,-3.0518,-3.0501,-3.0494,-3.0536,-3.0462,-3.0504,-3.0439,-3.0475,-3.0439,-3.0514,-3.052,-3.0507,-3.0497,-3.0514,-3.0516,-3.0525,-3.0512,-3.0469,-3.0467,-3.0466,-3.0465,0,-3.0593,-3.0548,-3.0623,-3.0594,-3.0589,-3.0649,-3.0625,-3.0667,-3.0639,-3.0693,-3.0702,-3.0659,-3.0697,-3.0653,-3.0687,-3.0663,-3.0766,-3.0738,-3.0767,-3.076,-3.0847,-3.084,-3.1133,-3.1169,-3.0887,-3.0889,-3.0892,0,-3.0723,-3.0776,-3.0754,-3.0776,-3.0773,-3.0809,-3.0826,-3.0768,-3.0788,-3.0789,-3.0832,-3.0864,-3.0886,-3.0952,-3.0925,-3.0952,-3.0925,-3.1025,-3.0928,-3.0945,-3.0928,-3.0926,-3.0932,-3.1046,-3.1049,-3.1052,-3.1054,0,-3.0959,-3.0935,-3.0961,-3.0981,-3.1002,-3.1015,-3.1022,-3.1045,-3.0985,-3.1012,-3.105,-3.1068,-3.1103,-3.1137,-3.1157,-3.115,-3.1094,-3.1085,-3.1106,-3.1125,-3.114,-3.1134,-3.0823,-3.1078,-3.1076,-3.1074,-3.1073,-3.1072,-3.1138,-3.1182,-3.1174,-3.1206,-3.1206,-3.1215,-3.1253,-3.123,-3.126,-3.1284,-3.1248,-3.1297,-3.1294,-3.1314,-3.1315,-3.1353,-3.131,-3.1341,-3.1348,-3.1357,-3.1371,-3.1133,-3.1357,-3.1356,-3.1355,-3.1355,-3.1354,0,-3.1372,-3.1362,-3.1393,-3.1405,-3.1432,-3.1374,-3.138,-3.1407,-3.1449,-3.1451,-3.1475,-3.152,-3.1553,-3.1529,-3.1557,-3.1593,-3.1568,-3.1602,-3.16,-3.16,-3.1407,-3.1386,-3.1622,-3.1622,-3.1622,-3.1622,-3.1622,-3.1622,-3.1496,-3.1569,-3.1544,-3.1617,-3.1607,-3.1653,-3.1661,-3.1671,-3.1672,-3.1725,-3.1752,-3.1735,-3.1728,-3.1755,-3.1784,-3.1776,-3.1791,-3.1835,-3.1819,-3.1639,-3.1613,-3.1588,-3.1568,-3.1839,-3.1839,-3.2008,-3.201,-3.2011]},{"header":{"parameterUnit":"m.s-1","parameterCategory":1,"la1":30.2991,"la2":30.254,"lo1":-89.0895,"lo2":-89.0444,"dy":0.0017,"dx":0.0017,"nx":28,"ny":28,"refTime":"2025-01-02T09:00:00:Z","depth":0,"parameterNumber":3,"parameterNumberName":"V-component_of_WINDS"},"data":[0,0,0,0,0,0,0,0,0,0,0,0,0,0,0,0,0,0,0,0,0,0,0,0,0,0,0,0,0,0,0,0,0,0,0,0,0,0,0,0,0,0,0,0,0,0,0,0,0,0,0,0,0,0,0,0,0,0,0.5154,0.5154,0,0.5135,0.5135,0.5135,0.5167,0.5168,0.5169,0.517,0.5147,0.5145,0.5144,0,0,0,0,0,0,0,0,0,0,0,0,0,0.5217,0.5216,0.5154,0.5154,0.5154,0.5135,0.5135,0.5135,0.5167,0.5168,0.517,0.5171,0.5147,0.5145,0.5143,0,0,0,0,0,0,0,0,0,0,0,0,0,0.5193,0.5215,0.5154,0.5168,0.5169,0.5135,0.5135,0.5135,0.5167,0.5168,0.517,0.5172,0.5148,0.5146,0.5143,0.5094,0,0,0.5136,0.5134,0,0,0,0,0,0,0,0,0.5194,0.5191,0.5166,0.5167,0.5168,0.5155,0.5148,0.5121,0.5166,0.5167,0.517,0.5172,0.5148,0.5146,0.5138,0.5093,0.5092,0.5135,0.5134,0.5133,0.5132,0,0,0,0,0,0,0,0.5196,0.5192,0.5147,0.5166,0.5167,0.5174,0.5173,0.5143,0.5148,0.5167,0.517,0.5167,0.5149,0.5141,0.5138,0.5092,0.5135,0.5133,0.5132,0.5131,0.5007,0.5005,0,0,0,0,0,0,0.5196,0.5193,0.5147,0.5146,0.5186,0.5172,0.517,0.5158,0.5149,0.5149,0.5166,0.5169,0.5144,0.5141,0.5137,0.508,0.5133,0.513,0.5129,0.5009,0.5007,0.5005,0,0,0,0,0,0,0.5197,0.5192,0.5148,0.517,0.5165,0.5169,0.5155,0.5156,0.5148,0.5148,0.5149,0.5156,0.5145,0.5141,0.5105,0.5079,0.5129,0.5127,0.5011,0.5008,0.5006,0.4964,0,0,0,0,0,0,0.5199,0.5192,0.5174,0.5169,0.5164,0.5117,0.5153,0.5155,0.5144,0.5148,0.5139,0.5139,0.5146,0.5109,0.5103,0.5077,0.5125,0.5013,0.501,0.5006,0.4968,0.496,0.4954,0,0,0,0,0,0.5201,0.5162,0.5173,0.5167,0.5141,0.5115,0.5112,0.5122,0.5142,0.5123,0.5124,0.514,0.5084,0.5105,0.5098,0.5071,0.5015,0.5011,0.5007,0.4971,0.4962,0.4954,0,0,0,0,0,0,0.5161,0.5161,0.5173,0.5132,0.5123,0.5121,0.5097,0.5112,0.5096,0.51,0.5112,0.511,0.5072,0.5068,0.5092,0.5024,0.5053,0.5047,0.5027,0.5019,0.5012,0.5013,0.5123,0,0,0,0,0,0.5148,0.5128,0.5129,0.5092,0.5087,0.5093,0.5082,0.5091,0.5082,0.5078,0.5076,0.5066,0.5046,0.5033,0.5014,0.4968,0.4967,0.4947,0.494,0.4934,0.4928,0.4904,0.4895,0.4991,0.4991,0.4992,0,0,0.5119,0.5117,0.5103,0.5084,0.5078,0.5056,0.509,0.5065,0.5048,0.5074,0.504,0.5039,0.5028,0.4988,0.4969,0.4983,0.4902,0.4929,0.4924,0.4922,0.4899,0.489,0.4882,0.4989,0.4989,0.499,0,0,0.5055,0.5052,0.5021,0.5016,0.5008,0.5013,0.5005,0.5001,0.5001,0.4969,0.4988,0.4968,0.4934,0.4926,0.4918,0.4854,0.4868,0.4848,0.4811,0.4787,0.478,0.4773,0.475,0.4741,0.4843,0.4843,0.4843,0,0.502,0.4989,0.5003,0.4977,0.4968,0.4993,0.4961,0.4955,0.4941,0.4934,0.4951,0.491,0.4904,0.4862,0.4847,0.484,0.4831,0.4848,0.478,0.4773,0.4767,0.4745,0.4736,0.4841,0.4841,0.4841,0.4841,0,0.4946,0.4924,0.49,0.4888,0.4876,0.4848,0.4857,0.4844,0.4854,0.4857,0.4824,0.4819,0.4801,0.4792,0.4801,0.4751,0.476,0.4778,0.4807,0.4755,0.4735,0.4726,0.4837,0.4838,0.4839,0.4839,0,0,0.4853,0.4852,0.4842,0.4838,0.4832,0.4815,0.4788,0.4772,0.476,0.4751,0.4728,0.47,0.4717,0.4708,0.4716,0.4696,0.4646,0.4716,0.4716,0.4702,0.459,0.4575,0.4565,0.4656,0.4655,0.4653,0.4591,0,0.479,0.4744,0.4757,0.4711,0.4691,0.4716,0.4693,0.4686,0.4689,0.4672,0.4675,0.4654,0.4679,0.4674,0.4655,0.4656,0.4623,0.4661,0.4634,0.4632,0.4634,0.4555,0.4539,0.448,0.4583,0.4581,0.458,0,0.4708,0.4698,0.465,0.4649,0.4641,0.462,0.4607,0.4591,0.4585,0.4588,0.4579,0.4593,0.4566,0.4597,0.456,0.4585,0.4575,0.4574,0.4572,0.4568,0.4602,0.4547,0.4461,0.4452,0.4568,0.4569,0.457,0,0.4645,0.4618,0.4587,0.4582,0.4581,0.4565,0.4564,0.456,0.4549,0.4538,0.4532,0.4517,0.4508,0.4496,0.4505,0.4527,0.4467,0.4498,0.4468,0.4467,0.4452,0.4452,0.4361,0.4448,0.4448,0.4449,0.4449,0,0.4571,0.4541,0.4558,0.4538,0.4505,0.4521,0.4488,0.4489,0.4486,0.4466,0.4487,0.4468,0.4483,0.4465,0.4472,0.444,0.4436,0.4438,0.444,0.4435,0.4434,0.4427,0.4431,0.4446,0.4447,0.4447,0.4448,0,0.4493,0.4504,0.4471,0.4473,0.4473,0.4449,0.4451,0.4432,0.4438,0.4413,0.4408,0.4416,0.4397,0.4406,0.4385,0.439,0.4348,0.4357,0.4351,0.4352,0.4321,0.4323,0.422,0.4207,0.4304,0.4303,0.4303,0,0.4444,0.4422,0.4423,0.4412,0.441,0.4392,0.4383,0.4398,0.4387,0.438,0.4362,0.4346,0.4332,0.43,0.4303,0.4288,0.4295,0.426,0.4292,0.4288,0.4293,0.4293,0.4291,0.4252,0.4251,0.425,0.425,0,0.4357,0.4364,0.435,0.4338,0.4327,0.4318,0.4311,0.4301,0.4316,0.4303,0.4285,0.4275,0.4255,0.4237,0.4224,0.4222,0.4238,0.424,0.4232,0.4226,0.4223,0.4223,0.4331,0.4242,0.4242,0.4243,0.4243,0.4244,0.4291,0.4273,0.4271,0.4255,0.4252,0.4246,0.4229,0.4233,0.4218,0.4204,0.4215,0.4192,0.4188,0.4173,0.4169,0.4151,0.4165,0.4153,0.415,0.4147,0.4142,0.4228,0.4149,0.4149,0.4149,0.415,0.415,0,0.4204,0.4205,0.419,0.4181,0.4168,0.4188,0.4181,0.4169,0.415,0.4145,0.4133,0.4112,0.4096,0.4099,0.4084,0.4069,0.4076,0.4065,0.4065,0.4064,0.4131,0.4139,0.4059,0.4059,0.4059,0.4059,0.4059,0.4059,0.4157,0.4127,0.4134,0.4103,0.4104,0.4083,0.4078,0.4072,0.4069,0.4045,0.4032,0.4035,0.4034,0.4019,0.4005,0.4007,0.3999,0.3985,0.3989,0.405,0.4059,0.4068,0.4075,0.3983,0.3983,0.3923,0.3922,0.3922]}]]